Wind_Speed
25 26 26 26 27 28 28 29 30 30 31 32 32 32 32 32 32 32 33 34 34 35 35 36 37 37 38 39 40 40 41 42 42 43 44 44 45 45 46 46 47 47 47 47
27 27 27 28 29 29 29 30 31 32 32 33 34 34 34 34 34 34 34 35 36 36 37 37 38 39 40 40 41 42 42 43 44 45 46 46 46 47 47 48 48 48 49 49
28 28 29 30 30 30 31 31 32 32 33 33 34 35 34 34 35 35 35 36 36 37 38 39 40 40 41 42 42 43 43 44 45 46 47 47 46 47 48 49 49 50 50 50
29 29 30 31 31 31 32 32 33 34 34 35 35 36 35 35 35 35 36 37 37 38 39 40 41 41 42 43 43 44 44 45 45 46 47 48 48 47 47 48 48 49 50 50
30 30 31 32 32 33 33 34 35 35 36 37 36 38 36 35 35 36 37 38 39 40 40 41 42 42 43 43 43 44 44 45 45 46 47 48 48 48 47 47 47 48 49 50
30 30 31 32 33 33 34 34 35 36 37 38 36 37 36 35 35 36 37 38 39 40 41 42 42 43 43 43 44 44 45 45 46 46 47 47 48 48 47 47 47 48 49 50
30 31 31 32 33 34 34 34 35 37 38 38 36 37 36 35 35 36 37 38 39 40 41 42 42 43 43 44 44 44 45 45 46 46 47 47 47 47 47 47 47 48 48 49
31 31 31 32 33 34 34 34 35 37 38 38 36 37 35 35 36 37 38 39 40 41 41 42 42 43 43 43 44 44 44 45 45 46 46 46 46 47 47 48 48 48 48 49
32 32 31 32 33 34 34 35 35 38 39 39 38 37 36 35 36 37 38 39 40 40 41 42 42 42 43 43 43 43 44 45 45 45 45 45 46 47 48 49 49 48 49 49
33 34 33 33 34 34 35 35 36 37 39 40 40 38 36 35 36 37 38 38 39 39 40 41 41 41 42 43 43 44 44 44 44 45 45 46 47 48 48 49 50 50 49 49
34 35 34 34 34 34 35 35 36 38 38 39 40 39 37 36 37 37 38 39 39 39 39 40 40 41 41 42 43 43 44 44 44 45 45 46 47 48 48 49 49 50 50 50
33 34 35 34 34 35 35 35 36 37 38 39 40 39 37 37 38 38 39 39 39 39 39 40 40 41 42 42 43 43 44 44 44 45 45 46 47 47 48 48 49 49 49 50
34 35 36 36 36 36 36 35 36 37 38 39 39 38 37 38 39 39 39 39 39 40 40 40 41 41 42 42 43 43 43 44 44 45 45 46 47 47 47 48 49 49 49 50
35 36 36 37 36 36 35 35 36 37 39 40 39 38 37 39 39 40 40 40 40 40 41 41 42 42 43 43 43 43 43 44 44 45 46 46 47 47 47 48 49 50 51 50
36 36 36 36 36 36 36 36 37 38 39 40 38 38 38 39 40 41 41 41 41 41 42 42 43 43 43 43 43 43 44 44 45 46 46 46 47 47 48 49 50 50 51 51
37 38 37 36 36 37 37 37 37 38 38 38 38 38 38 39 41 41 41 41 41 41 41 42 42 43 43 44 44 44 45 45 46 46 47 47 47 48 49 49 50 50 50 50
37 37 37 37 37 38 37 36 36 37 38 38 39 38 38 39 40 40 41 41 41 41 41 41 42 42 43 43 43 44 45 46 47 47 47 47 48 49 49 49 49 49 49 49
37 37 37 38 38 38 36 36 36 36 37 38 39 39 39 40 40 40 41 41 41 41 41 42 42 42 43 43 44 44 45 46 46 46 46 46 47 47 47 47 47 47 47 47
36 36 37 38 39 38 37 37 37 37 37 38 38 39 40 40 41 41 41 41 41 41 41 42 42 42 42 42 43 44 45 45 45 45 45 45 45 46 46 46 46 45 45 45
35 35 36 37 38 39 38 38 38 38 38 37 38 39 40 40 40 40 41 41 41 41 42 42 42 41 42 42 43 43 43 43 43 43 44 44 44 44 44 43 43 43 43 43
35 35 35 36 38 38 38 38 38 38 38 38 39 39 39 40 40 40 41 41 41 42 42 42 42 42 42 42 43 43 42 42 42 42 42 42 43 43 43 42 41 41 41 41
35 35 35 36 38 38 37 38 37 38 38 38 38 38 39 40 40 40 40 41 41 41 42 42 42 42 42 42 42 42 41 41 41 41 41 41 41 41 40 40 39 39 39 38
34 34 35 36 37 37 37 37 36 37 37 37 38 38 39 40 40 40 40 40 41 41 41 41 42 42 42 42 41 41 40 40 40 40 39 39 39 39 38 38 37 37 37 36
34 34 35 35 35 35 35 35 35 36 36 37 37 38 39 39 39 40 40 40 40 40 40 41 41 41 41 41 41 40 40 39 39 38 38 37 37 37 36 36 36 36 35 35
33 33 34 33 33 32 33 33 34 35 36 36 37 37 38 39 39 39 39 39 39 39 39 40 40 40 41 40 40 39 39 38 38 38 37 37 36 36 35 35 35 35 34 34
31 31 31 31 31 31 32 33 34 34 35 36 36 37 38 38 39 39 39 39 38 38 38 38 39 39 39 38 37 37 38 38 37 37 36 36 36 35 34 34 33 33 32 32
Wind_Direction
267 267 268 269 268 269 270 270 271 271 271 269 269 269 269 269 270 269 269 269 270 271 272 274 274 275 276 277 278 278 277 276 276 277 277 277 276 276 276 276 275 274 273 272
268 268 269 268 268 270 272 273 273 273 273 271 270 270 270 270 271 271 270 271 271 272 274 275 276 277 277 278 278 279 279 278 278 278 278 277 278 277 277 277 276 275 274 273
269 270 269 269 270 271 272 274 275 275 274 273 273 271 271 271 272 272 272 272 272 273 274 276 277 277 277 278 279 279 279 279 278 278 278 277 277 278 277 277 276 276 275 275
270 271 271 272 272 273 273 274 275 275 274 274 274 274 272 272 273 273 273 273 274 275 276 277 278 278 278 278 279 279 279 279 279 279 278 278 278 278 278 277 277 277 276 275
273 273 273 273 273 273 274 275 275 275 274 274 274 275 273 273 273 274 275 275 275 276 277 277 278 278 278 279 280 280 280 280 280 280 279 279 279 279 279 278 277 277 277 276
275 275 275 274 274 274 275 275 276 276 277 276 277 276 275 275 276 276 276 276 276 277 277 278 278 278 278 279 279 280 280 280 280 281 281 280 280 279 280 279 279 279 278 278
277 277 277 276 274 274 275 276 278 278 279 279 280 278 278 278 278 277 277 277 278 278 278 278 278 278 279 279 279 280 280 280 281 281 281 281 280 280 280 280 281 281 280 280
277 278 278 277 276 276 275 276 277 279 280 281 280 279 280 281 280 279 279 279 279 279 278 278 279 279 279 279 280 280 280 280 281 281 281 280 279 280 280 281 281 282 282 281
278 278 278 277 277 276 276 275 276 278 279 280 280 280 281 282 282 282 281 280 279 279 279 278 278 279 279 280 280 281 281 282 282 281 281 281 280 280 280 281 281 282 282 282
277 277 277 276 276 275 276 277 277 277 279 280 281 283 284 285 284 284 283 282 280 280 280 279 279 279 279 280 281 281 282 282 282 281 281 281 280 280 281 281 281 282 281 282
277 278 278 277 277 277 277 277 277 277 278 279 282 284 286 285 284 284 284 283 282 282 282 281 280 280 280 281 281 282 282 282 282 282 282 282 281 281 281 282 282 282 282 282
276 276 277 277 277 277 276 277 277 277 278 279 280 283 286 286 285 285 284 283 283 283 283 283 282 282 282 282 282 282 282 282 282 282 282 282 282 282 282 283 283 283 283 283
275 276 276 276 276 276 276 277 276 276 277 278 280 283 285 286 286 285 284 284 284 284 284 284 284 283 283 283 283 282 282 283 283 283 283 283 283 283 283 283 283 283 283 283
275 276 276 277 279 279 279 277 277 276 277 279 281 283 284 285 285 284 284 285 286 286 286 286 285 285 284 284 283 283 283 283 284 284 284 284 283 283 283 283 283 283 284 284
275 276 278 277 277 277 278 278 277 276 277 279 282 282 284 284 284 284 285 286 286 287 287 287 286 285 284 284 284 284 284 284 284 284 284 284 284 284 284 284 284 284 284 284
276 276 277 277 277 277 278 278 278 278 277 279 281 282 284 284 285 286 287 287 287 287 288 288 287 285 285 285 285 285 284 285 284 285 285 285 285 285 285 286 285 285 285 284
276 277 277 278 279 278 278 280 280 280 279 280 282 283 283 284 285 286 286 287 287 287 287 287 287 286 286 287 286 286 286 286 286 285 285 285 286 286 286 287 286 286 285 284
276 276 277 278 279 278 282 282 281 281 281 281 282 283 284 285 285 286 287 287 287 287 287 288 288 288 288 288 288 288 288 288 287 286 285 286 287 287 287 288 287 286 286 285
276 277 277 278 279 280 282 283 282 281 282 283 284 284 285 286 287 286 287 287 288 288 288 289 289 289 289 289 289 290 290 289 288 287 287 287 287 288 288 288 288 287 287 286
276 277 278 279 280 282 283 284 283 283 282 283 284 285 287 287 287 287 288 288 288 289 289 289 289 289 289 290 290 291 291 290 289 289 289 288 288 289 289 289 288 287 287 287
275 276 278 279 280 282 284 284 283 283 286 287 286 287 287 288 289 289 289 289 289 289 290 290 290 289 290 290 290 291 291 291 290 290 290 290 289 289 289 289 289 288 288 287
277 277 278 279 280 283 285 284 284 286 287 287 287 287 288 289 290 290 290 290 290 290 290 290 290 289 290 290 290 291 291 291 291 291 291 290 290 290 289 289 289 288 288 288
278 278 278 278 280 283 284 285 286 285 285 286 287 288 289 290 290 290 290 291 291 291 291 291 290 289 289 289 290 290 290 291 291 291 291 292 291 291 289 289 289 289 289 288
278 279 279 279 280 282 284 286 286 286 286 287 288 290 291 291 291 292 292 292 292 291 291 290 290 289 289 289 289 290 290 292 292 292 292 293 293 291 290 289 289 289 289 288
279 279 280 280 281 282 283 285 286 287 288 290 291 292 293 293 293 294 294 294 293 292 291 290 289 289 289 289 289 289 290 292 292 292 292 293 293 292 291 290 289 289 288 288
277 278 280 280 281 282 283 286 288 289 290 291 292 293 293 294 294 295 294 294 293 292 292 291 291 291 290 289 289 290 291 292 292 291 292 292 292 292 291 291 291 290 289 287
Height
5760 5760 5760 5760 5758 5758 5757 5756 5755 5755 5754 5753 5752 5752 5751 5750 5749 5749 5748 5747 5746 5745 5743 5742 5741 5740 5739 5738 5736 5735 5733 5732 5730 5729 5727 5726 5725 5723 5722 5720 5719 5718 5717 5716
5754 5753 5753 5751 5750 5750 5749 5748 5747 5747 5745 5744 5743 5743 5742 5741 5740 5739 5738 5737 5736 5735 5734 5732 5731 5730 5728 5727 5725 5724 5722 5720 5719 5717 5715 5714 5712 5711 5709 5707 5706 5704 5703 5702
5746 5746 5744 5743 5743 5742 5741 5740 5739 5738 5736 5734 5733 5733 5733 5732 5730 5729 5728 5727 5725 5725 5724 5722 5721 5719 5717 5716 5714 5712 5710 5708 5706 5705 5703 5701 5699 5697 5696 5694 5692 5690 5689 5688
5737 5737 5736 5735 5734 5733 5732 5732 5730 5728 5726 5725 5725 5722 5723 5722 5720 5719 5718 5716 5715 5714 5713 5711 5709 5707 5706 5704 5702 5700 5698 5696 5694 5692 5690 5688 5686 5684 5682 5680 5678 5676 5675 5673
5729 5729 5728 5726 5726 5724 5723 5722 5720 5718 5716 5715 5715 5712 5712 5712 5710 5709 5707 5706 5704 5703 5702 5700 5698 5696 5694 5692 5690 5688 5685 5683 5681 5679 5677 5674 5672 5670 5668 5666 5664 5662 5660 5658
5721 5720 5718 5717 5716 5714 5713 5712 5710 5707 5705 5704 5705 5701 5701 5701 5700 5698 5696 5695 5693 5692 5690 5688 5686 5684 5682 5680 5677 5675 5673 5671 5668 5666 5663 5661 5659 5657 5655 5652 5650 5648 5646 5644
5712 5711 5709 5708 5706 5705 5703 5702 5700 5697 5695 5694 5694 5691 5691 5690 5688 5687 5685 5683 5681 5680 5678 5676 5674 5672 5670 5668 5665 5663 5661 5658 5655 5653 5650 5648 5646 5643 5641 5639 5637 5635 5632 5630
5702 5701 5700 5698 5697 5695 5694 5693 5691 5688 5685 5684 5683 5680 5682 5680 5677 5675 5674 5672 5670 5668 5666 5664 5662 5660 5657 5655 5653 5650 5648 5645 5643 5640 5637 5635 5632 5630 5628 5626 5624 5621 5619 5616
5692 5691 5690 5688 5687 5685 5683 5682 5681 5678 5675 5673 5671 5671 5671 5669 5667 5664 5662 5660 5658 5656 5654 5652 5649 5647 5645 5643 5640 5638 5635 5633 5630 5627 5625 5622 5620 5617 5615 5613 5610 5608 5605 5603
5681 5680 5680 5678 5677 5675 5674 5672 5670 5667 5664 5662 5662 5661 5661 5658 5656 5653 5651 5648 5646 5644 5642 5639 5637 5635 5632 5630 5628 5625 5623 5620 5617 5615 5612 5610 5607 5604 5602 5599 5597 5594 5591 5589
5672 5670 5669 5668 5666 5665 5664 5662 5659 5657 5654 5653 5651 5653 5651 5648 5645 5642 5640 5637 5634 5632 5630 5627 5625 5623 5620 5618 5615 5613 5610 5608 5605 5602 5600 5597 5594 5591 5589 5586 5583 5580 5578 5575
5661 5660 5658 5658 5657 5654 5653 5651 5650 5648 5645 5643 5641 5644 5640 5637 5633 5631 5628 5626 5623 5621 5618 5615 5613 5611 5608 5606 5603 5600 5598 5595 5593 5590 5587 5584 5581 5578 5575 5572 5570 5567 5564 5561
5650 5649 5647 5646 5647 5645 5642 5641 5639 5637 5634 5632 5631 5634 5629 5625 5622 5619 5617 5614 5612 5610 5607 5604 5601 5599 5596 5593 5591 5588 5585 5583 5580 5577 5574 5571 5568 5565 5562 5559 5556 5553 5550 5547
5640 5638 5638 5637 5635 5633 5632 5631 5629 5626 5623 5622 5622 5622 5619 5614 5611 5608 5606 5603 5601 5598 5595 5593 5590 5587 5584 5581 5578 5576 5573 5570 5567 5564 5561 5558 5555 5552 5548 5545 5542 5539 5536 5533
5629 5628 5628 5626 5624 5623 5621 5620 5618 5615 5614 5612 5612 5610 5608 5603 5600 5597 5595 5592 5590 5587 5584 5581 5578 5575 5572 5569 5566 5564 5561 5558 5555 5552 5548 5545 5541 5538 5535 5531 5528 5525 5522 5519
5618 5618 5617 5616 5614 5612 5610 5610 5607 5605 5603 5601 5600 5599 5596 5592 5589 5586 5584 5581 5578 5575 5572 5569 5566 5563 5560 5557 5554 5551 5548 5545 5542 5538 5535 5531 5528 5524 5521 5517 5514 5511 5507 5504
5608 5607 5606 5605 5603 5600 5600 5601 5597 5595 5593 5591 5589 5588 5585 5582 5579 5576 5573 5570 5567 5564 5561 5557 5554 5551 5548 5545 5542 5539 5535 5532 5528 5525 5521 5518 5514 5511 5507 5504 5500 5496 5493 5489
5598 5596 5594 5593 5592 5590 5593 5590 5587 5584 5583 5580 5578 5576 5573 5571 5567 5564 5561 5558 5555 5552 5549 5545 5542 5539 5536 5533 5529 5526 5522 5518 5515 5511 5507 5504 5500 5497 5493 5490 5486 5482 5479 5475
5587 5586 5584 5582 5580 5579 5581 5579 5576 5573 5572 5570 5567 5564 5562 5559 5556 5553 5550 5546 5543 5540 5537 5534 5530 5527 5524 5520 5517 5513 5509 5505 5501 5498 5494 5490 5487 5484 5480 5476 5473 5469 5465 5462
5577 5575 5574 5571 5569 5568 5571 5568 5564 5563 5561 5559 5556 5553 5550 5547 5545 5543 5539 5535 5532 5528 5525 5522 5518 5515 5511 5508 5504 5500 5496 5492 5488 5485 5481 5477 5474 5470 5467 5463 5459 5456 5452 5449
5566 5565 5563 5561 5558 5558 5559 5556 5553 5553 5551 5548 5544 5542 5539 5536 5533 5531 5527 5523 5520 5516 5513 5509 5506 5502 5499 5495 5492 5488 5484 5480 5476 5472 5468 5465 5461 5457 5454 5450 5447 5443 5440 5437
5555 5554 5553 5551 5549 5551 5547 5544 5543 5541 5538 5535 5532 5530 5527 5524 5521 5518 5514 5511 5508 5504 5501 5497 5493 5490 5487 5483 5479 5476 5472 5468 5464 5460 5456 5452 5448 5445 5441 5438 5434 5431 5428 5424
5545 5545 5542 5541 5541 5539 5536 5534 5531 5529 5527 5524 5521 5519 5516 5512 5509 5506 5503 5499 5496 5492 5489 5485 5481 5478 5474 5471 5467 5464 5460 5456 5452 5448 5444 5440 5437 5433 5429 5426 5423 5420 5416 5413
5535 5533 5532 5530 5529 5527 5525 5522 5520 5518 5515 5513 5510 5507 5504 5501 5497 5494 5491 5487 5484 5480 5476 5473 5469 5466 5462 5458 5455 5451 5448 5444 5440 5436 5433 5429 5425 5421 5418 5415 5412 5408 5405 5402
5525 5523 5521 5520 5519 5517 5515 5512 5510 5507 5504 5502 5499 5496 5493 5489 5486 5483 5479 5475 5472 5468 5464 5461 5457 5454 5450 5446 5443 5439 5436 5432 5429 5425 5421 5418 5414 5410 5407 5404 5401 5398 5395 5392
5515 5514 5512 5511 5509 5507 5505 5502 5500 5497 5494 5491 5488 5485 5482 5478 5475 5471 5467 5464 5460 5457 5453 5449 5445 5442 5438 5435 5431 5428 5424 5421 5417 5414 5410 5407 5403 5400 5397 5393 5390 5387 5384 5382